叶彗星

C/2019 K4 ( Ye )

English version
Home page
Updated on August 15, 2020

---------------------------------------------------------------------

・ プロフィール

発見日 2019年5月30日
発見光度 17.1等
発見者 Quan-zhi Ye(叶泉志)(Palomar)

・ 写真集

・ 軌道要素

Epoch 2019 June 6.0 TT = JDT 2458640.5
T 2019 June 16.41369 TT                                 Williams
q   2.2593882            (2000.0)            P               Q
z  +0.0004263      Peri.  139.76967     +0.76296113     +0.64643841
 +/-0.0000034      Node   180.16467     -0.08936420     +0.10971758
e   0.9990368      Incl.  105.30578     +0.64023773     -0.75503605
From 515 observations 2019 Apr. 24-Dec. 2, mean residual 0".5.

・ 星図

・ 光度変化

        m1 = 11.7 + 5 logΔ + 10.0 log r

---------------------------------------------------------------------

軌道要素はM.P.E.C. 2020-A105に掲載されたものです。
星図はステラナビゲータ Ver.10 (アストロアーツ) で作成したものです。
光度グラフはComet for Windowsで作成したものです。

---------------------------------------------------------------------

Copyright(C) Seiichi Yoshida (comet@aerith.net). All rights reserved.